DELTA 1 DEB, 7035

Orbit data source: Space-Track

DELTA 1 DEB, 7035 is space debris in LEO originally from a launch on Tue, 06 Nov 1973 UTC launched from the Air Force Western Test Range (AFWTR). Debris objects in space refer to the collection of defunct objects orbiting the Earth. Examples of debris include non-operational satellites, rocket bodies, and fragments generated from explosions, collisions, or faulty payload assembly.

Loading next visibility...
Identifier
7035, 1973-086AB
Orbit
LEO
Country
Flag of USUS
Related business
Manufacturer
Unknown
Mission
Spacecraft
Bus & Motor
Unknown
Mass
Unknown
Launch date (UTC)
1973-11-06 (52 years ago)
Launch vehicle
Unknown
Launch site
Air Force Western Test Range (AFWTR)
Object type
Payload
Rocket body
Debris
Shape & HBR
Unknown shape, 0.2 m
Radar Cross Section
Medium (>0.1 m² and <1 m²)

Expand to show TLE details & history
Last TLE update: 19 hours ago

TLE from 19 hours ago
0 DELTA 1 DEB
1 07035U 73086AB  25299.37279234  .00000157  00000-0  25411-2 0  9991
2 07035 101.7802 240.1178 0314969 139.0380 344.9395 11.83514059242681
Epoch: 2025-10-26T08:56Z
TLE epoch observation values (Epoch: 2025-10-26T08:56:49.258Z)
Latitude
55.27732°
Longitude
-91.65268°
Altitude
1,517.608 km
Speed
7.219 km/s
True Right ascension
05h 10m 10s
True Declination
55° 07' 54"
Sunlit
Object was in daylight at epoch
Visualization orbit readout
Latitude
Unknown
Longitude
Unknown
Altitude
Unknown
Speed
Unknown
Apparent Right ascension
Unknown
Apparent Declination
Unknown
Sunlit
N/A
Visualization observer readout
Local Sidereal Time
23:20:46
Azimuth
Unknown
Elevation
Unknown
Doppler factor
Unknown
Orbital elements
Apogee altitude
2,009.271 km
Perigee altitude
1,497.049 km
Semi-major axis
8,131.297 km
Eccentricity
0.0315
Inclination
101.7802°
RAAN
240.1178°
Arg. of periapsis
139.038°
True anomaly
343.96471°
Mean anomaly
344.9395°
Eccentric anomaly
344.45589°
Mean motion
2.96008 °/min
Orbital period
121.62 mins
BSTAR
0.0025411
Loading maneuver chart data...
Computing Atmospheric mass density...
Loading historical data...
Loading historical data...
Loading historical data...
Loading historical data...
Loading historical data...
Loading historical data...
Loading historical data...

Documentation

Showing up to 5 results
|